Showing default

ION SCV-015, 58469

Orbit data source: Space-Track

ION SCV-015, 58469 is a payload satellite owned by D-ORBIT (IT) in SSO that was launched on Fri, 01 Dec 2023 UTC via an FALCON 9 launch vehicle from the Air Force Western Test Range (AFWTR). Payload-class satellites include a variety of spacecraft equipped with specific instruments for various scientific and technological missions. These include communications satellites like Starlink; space stations such as the ISS; scientific satellites like the Hubble; Earth observation satellites from companies like Planet Labs, Umbra, and HawkEye 360; GPS; miniature CubeSats for education and research; and military/defense satellites.

Loading next visibility...
Identifier
58469, 2023-185H
Orbit
SSO
Country
Flag of ITIT
Related business
Manufacturer
D-ORBIT
Mission
Operational Commercial Technology
Bus & Motor
ION-SC, PM200
Mass
220 kg wet, 150 kg dry
Launch date (UTC)
2023-12-01 (3 years ago)
Launch vehicle
FALCON 9
Launch site
Air Force Western Test Range (AFWTR)
Object type
Payload
Rocket body
Debris
Shape & HBR
Box, 0.2 m
Radar Cross Section
0.240 m², Large (>1 m²)

Expand to show TLE details & history
Last TLE update: 6 hours ago

TLE from 6 hours ago
0 ION SCV-015
1 58469U 23185H   26222.88587394  .00003656  00000-0  11487-3 0  9991
2 58469  97.5761 312.9697 0007383 262.6504  97.3899 15.33652621149465
Epoch: 2026-08-10T21:15Z
TLE epoch observation values (Epoch: 2026-08-10T21:15:39.508Z)
Latitude
-0.00002°
Longitude
34.693°
Altitude
468.683 km
Speed
7.631 km/s
True Right ascension
20h 51m 52s
True Declination
0° 00' 00"
Sunlit
Object was in full shadow at epoch
Visualization orbit readout
Latitude
Unknown
Longitude
Unknown
Altitude
Unknown
Speed
Unknown
Apparent Right ascension
Unknown
Apparent Declination
Unknown
Sunlit
N/A
Visualization observer readout
Local Sidereal Time
17:21:33
Azimuth
Unknown
Elevation
Unknown
Doppler factor
Unknown
Orbital elements
Apogee altitude
466.931 km
Perigee altitude
456.831 km
Semi-major axis
6,840.018 km
Eccentricity
0.00074
Inclination
97.5761°
RAAN
312.9697°
Arg. of periapsis
262.6504°
True anomaly
97.47379°
Mean anomaly
97.3899°
Eccentric anomaly
97.43185°
Mean motion
3.8367 °/min
Orbital period
93.83 mins
BSTAR
0.00011487
Loading maneuver chart data...
Computing Atmospheric mass density...
Loading historical data...
Loading historical data...
Loading historical data...
Loading historical data...
Loading historical data...
Loading historical data...
Loading historical data...

Documentation

Showing up to 5 results
|